SCP
0 0 0 0 0 0 0 0 0 0 0 0 0 0 0 0 0 0 0 0 0 0 0 0 0 0 0 0 0 0 0 0 0 0 0 0 0 0 0 0 0 0 0
0 0 0 0 0 0 0 0 0 0 0 0 0 0 0 0 0 0 0 0 0 0 0 0 0 0 0 0 0 0 0 0 0 0 0 0 0 0 0 0 0 0 0
0 0 0 0 0 0 0 0 0 0 0 0 0 0 0 0 0 0 0 0 0 0 0 0 0 0 0 0 0 0 0 0 0 0 0 0 0 0 0 0 0 0 0
0 0 0 0 0 0 0 0 0 0 0 0 0 0 0 0 0 0 0 0 0 0 0 0 0 0 0 0 0 0 0 0 0 0 0 0 0 0 0 0 0 0 0
0 0 0 0 0 0 0 0 0 0 0 0 0 0 0 0 0 0 0 0 0 0 0 0 0 0 0 0 0 0 0 0 0 0 0 0 0 0 0 0 0 0 0
0 0 0 0 0 0 0 0 0 0 0 0 0 0 0 0 0 0 0 0 0 0 0 0 0 0 0 0 0 0 0 0 0 0 0 0 0 0 0 0 0 0 0
0 0 0 0 0 0 0 0 0 0 0 0 0 0 0 0 0 0 0 0 0 0 0 0 0 0 0 0 0 0 0 0 0 0 0 0 0 0 0 0 0 0 0
0 0 0 0 0 0 0 0 0 0 0 0 0 0 0 0 0 0 0 0 0 0 0 0 0 0 0 0 0 0 0 0 0 0 0 0 0 0 0 0 0 0 0
0 0 0 0 0 0 0 0 0 0 0 0 0 0 0 0 0 0 0 0 0 0 0 0 0 0 0 0 0 0 0 0 0 0 0 0 0 0 0 0 0 0 0
0 0 0 0 0 0 0 0 0 0 0 0 0 0 0 0 0 0 0 0 0 0 0 0 0 0 0 0 0 0 0 0 0 0 0 0 0 0 0 0 0 0 0
0 0 0 0 0 0 0 0 0 0 0 0 0 0 0 0 0 0 0 0 0 0 0 0 0 0 0 0 0 0 0 0 0 0 0 0 0 0 0 0 0 0 0
0 0 0 0 0 0 0 0 0 0 0 0 0 0 0 0 0 0 0 0 0 0 0 0 0 0 0 0 0 0 0 0 0 0 0 0 0 0 0 0 0 0 0
0 0 0 0 0 0 0 0 0 0 0 0 0 0 0 0 0 0 0 0 0 0 0 0 0 0 0 0 0 0 0 0 0 0 0 0 0 0 0 0 0 0 0
0 0 0 0 0 0 0 0 0 0 0 0 0 0 0 0 0 0 0 0 0 0 0 0 0 0 0 0 0 0 0 0 0 0 0 0 0 0 0 0 0 0 0
0 0 0 0 0 0 0 0 0 0 0 0 0 0 0 0 0 0 0 0 0 0 0 0 0 0 0 0 0 0 0 0 0 0 0 0 0 0 0 0 0 0 0
-0 -0 -0 -0 0 0 0 0 0 0 0 0 0 0 0 0 0 0 0 0 0 0 0 0 0 0 0 0 0 0 0 0 0 0 0 0 0 0 0 0 0 0 0
-0 0 -0 -0 0 0 0 0 0 0 0 0 0 0 0 0 0 -0 0 0 0 0 0 0 0 0 0 0 0 0 0 0 0 0 0 0 0 0 0 0 0 0 0
-0 -0 -0 -0 0 0 0 0 0 0 0 0 0 0 0 0 0 0 -0 0 0 0 0 0 0 0 0 0 0 0 0 0 0 0 0 0 0 0 0 0 0 0 0
-0 -0 -0 0 0 0 0 0 0 0 0 0 0 0 0 0 0 0 0 0 0 0 0 0 0 0 0 0 0 0 0 0 0 0 0 0 0 0 0 0 0 0 0
-0 -0 -0 -0 -0 0 0 0 0 0 0 0 0 0 0 0 0 0 0 0 0 0 0 0 0 0 0 0 0 0 0 0 0 0 0 0 0 0 0 0 0 0 0
0 0 0 0 0 0 0 0 0 0 0 0 0 0 0 0 0 0 0 0 0 0 0 0 0 0 0 0 0 0 0 0 0 0 0 0 0 0 0 0 0 0 0
0 0 0 0 0 0 0 0 0 0 0 0 0 0 0 0 0 0 0 0 0 0 0 0 0 0 0 0 0 0 0 0 0 0 0 0 0 0 0 0 0 0 0
0 0 0 0 0 0 0 0 0 0 0 0 0 0 0 0 0 0 0 0 0 0 0 0 0 0 0 0 0 0 0 0 0 0 0 0 0 0 0 0 0 0 0
0 0 0 0 0 0 0 0 0 0 0 0 0 0 0 0 0 0 0 0 0 0 0 0 0 0 0 0 0 0 0 0 0 0 0 0 0 0 0 0 0 0 0
0 0 0 0 0 0 0 0 0 0 0 0 0 0 0 0 0 0 0 0 0 0 0 0 0 0 0 0 0 0 0 0 0 0 0 0 0 0 0 0 0 0 0
0 0 0 0 0 0 0 0 0 0 0 0 0 0 0 0 0 0 0 0 0 0 0 0 0 0 0 0 0 0 0 0 0 0 0 0 0 0 0 0 0 0 0
Wind_Speed_500mb
37 49 58 70 79 87 94 99 97 89 90 93 91 85 80 75 72 65 60 53 49 45 43 41 40 40 37 36 35 35 36 38 50 61 60 65 68 65 66 65 59 64 74
19 31 47 56 66 77 85 93 93 86 87 87 86 85 85 79 75 72 66 60 54 51 46 45 44 44 40 39 38 37 39 43 50 60 64 67 68 61 64 66 63 63 72
7 18 28 42 51 63 72 81 85 85 85 86 84 84 83 81 80 76 69 62 57 54 50 49 46 47 44 41 38 39 41 45 49 59 67 68 69 63 67 67 69 68 70
4 7 14 24 34 46 58 68 78 81 83 84 81 80 81 82 81 77 72 65 61 60 54 53 50 50 46 42 40 40 42 44 49 56 65 70 67 64 65 74 79 75 75
15 11 8 14 22 31 42 52 63 69 76 80 81 81 82 81 80 79 74 68 66 62 60 56 53 51 48 44 42 42 42 44 49 56 62 67 66 66 68 72 77 83 81
22 14 5 10 18 26 33 43 49 57 67 75 80 79 79 79 80 78 72 72 69 67 64 59 55 53 51 48 44 42 42 43 48 52 57 60 57 60 64 67 70 81 87
29 23 15 7 5 17 27 33 39 47 55 66 73 75 78 79 79 76 74 73 72 70 66 61 58 56 53 50 46 44 42 42 45 50 54 51 52 52 56 62 63 65 69
36 33 26 18 9 3 14 26 35 43 51 59 65 72 76 77 77 75 73 71 74 73 69 62 59 57 55 51 49 44 41 42 43 46 48 46 43 45 47 54 60 61 62
41 39 37 32 25 14 7 13 25 36 44 51 57 61 67 73 75 74 72 75 78 76 71 66 62 61 57 54 50 44 43 42 41 43 45 40 37 39 44 48 52 57 61
44 43 41 37 34 29 21 14 14 25 35 44 51 56 60 64 67 70 71 75 79 79 76 69 67 65 58 56 51 45 44 42 41 40 39 34 32 35 38 43 48 47 44
44 39 38 38 36 34 31 26 21 16 21 32 42 49 57 63 66 66 68 75 79 81 78 73 71 67 62 58 51 47 41 42 40 39 35 30 28 29 34 39 40 37 34
37 38 38 38 38 36 33 31 27 26 23 20 28 38 46 51 58 65 65 69 72 79 79 74 68 64 61 57 54 48 44 42 40 36 31 27 23 24 28 35 33 25 25
38 37 34 29 32 36 38 36 36 30 25 26 29 31 35 40 44 51 59 63 68 75 76 70 63 60 60 59 58 53 48 42 39 34 30 23 19 19 22 27 23 18 18
42 40 41 41 35 33 33 30 33 36 36 28 27 31 33 37 40 40 50 58 63 71 73 72 67 61 63 63 61 59 51 44 40 33 30 22 18 14 15 20 19 14 11
52 51 51 49 48 45 40 36 32 25 30 37 34 32 34 34 38 38 39 52 62 72 75 74 73 73 74 74 68 62 54 46 41 34 32 24 19 15 8 10 11 10 9
65 65 62 63 60 55 54 52 38 37 35 35 36 37 33 31 33 37 39 33 42 56 74 84 85 83 81 77 71 64 56 49 42 39 35 28 23 19 12 3 4 4 5
73 73 73 73 70 69 65 61 64 52 43 39 38 37 35 33 31 32 37 32 31 50 75 86 89 88 84 77 71 64 56 49 45 41 38 32 29 27 20 12 6 2 1
82 81 81 79 77 75 74 71 68 65 70 63 43 41 40 36 33 31 36 33 42 57 77 78 83 82 81 76 70 63 55 55 52 47 43 38 35 34 29 20 15 8 4
85 85 82 80 80 81 81 79 79 77 72 71 68 51 41 39 36 32 36 48 55 61 72 76 76 74 75 75 70 60 62 62 55 52 48 43 41 40 35 27 24 15 10
85 84 83 82 81 80 80 80 82 82 80 77 74 65 53 45 42 35 38 53 58 61 63 73 75 79 72 73 70 71 65 62 64 59 52 48 46 44 40 34 31 22 18
75 77 75 75 77 76 76 78 83 84 85 83 82 74 62 55 55 50 39 48 59 66 66 66 67 76 77 76 73 76 70 69 72 65 58 53 51 50 46 41 38 30 27
69 72 70 71 73 74 74 74 80 86 89 90 90 85 72 66 63 61 59 52 54 61 66 68 66 63 69 75 81 74 76 75 75 69 62 58 56 54 52 49 45 40 39
65 68 70 70 72 73 73 75 78 83 88 89 89 89 84 75 69 67 62 62 53 55 59 62 69 71 74 78 78 76 78 78 74 72 65 64 62 62 58 56 52 49 51
56 61 64 65 68 70 71 72 74 76 79 84 82 85 84 82 77 71 67 66 62 48 52 61 67 71 75 80 74 75 76 78 75 72 71 66 65 66 61 61 56 55 56
57 59 61 64 67 69 71 74 75 74 75 75 76 80 82 81 85 77 70 69 63 61 49 55 58 70 69 69 72 74 80 79 74 74 74 69 68 65 65 64 60 62 63
59 63 66 67 70 72 73 74 75 74 73 71 70 72 74 82 87 79 73 71 66 66 48 53 61 69 70 66 66 64 72 85 80 78 76 73 71 69 70 69 66 69 68
Wind_Direction_500mb
212 213 213 215 214 218 221 226 227 225 223 223 222 220 220 220 221 224 228 232 236 240 242 244 245 249 254 262 272 282 289 289 288 303 309 312 315 322 325 325 323 326 326
217 215 214 214 214 217 219 226 228 227 225 224 223 221 222 223 225 227 229 233 237 242 245 245 245 249 252 260 270 281 290 295 295 302 313 316 319 326 327 329 328 327 327
192 213 212 210 210 214 218 224 228 227 226 223 222 223 224 225 227 228 232 237 240 244 246 247 247 248 251 257 268 280 289 296 301 304 311 317 321 332 330 330 328 331 332
90 178 208 210 213 217 218 226 230 228 226 223 223 224 225 228 228 231 234 237 242 244 247 249 248 249 252 257 265 276 286 296 302 308 313 317 324 333 329 328 330 335 335
84 121 125 212 213 220 218 223 227 229 228 225 225 225 227 229 230 233 235 239 242 244 246 249 250 250 252 255 263 275 286 297 305 310 312 317 326 331 329 331 331 332 335
59 65 93 191 196 206 216 222 226 228 227 226 226 229 230 231 233 235 237 241 243 244 248 250 250 249 249 252 259 270 283 296 303 308 312 316 325 326 327 331 333 335 337
55 55 56 65 205 218 215 216 223 228 229 230 231 232 234 234 236 238 239 241 244 247 249 249 249 248 248 251 258 267 280 293 302 308 312 317 319 326 327 328 332 332 332
42 40 41 38 32 292 238 231 226 224 226 229 231 234 236 237 239 239 240 242 245 246 248 248 249 248 248 250 256 266 278 290 300 304 309 317 320 323 327 326 328 329 334
37 36 30 26 18 13 331 263 246 238 233 234 235 237 238 238 240 241 240 240 242 244 245 245 245 245 244 247 253 264 275 286 296 303 310 317 323 323 325 327 329 333 338
32 30 28 22 12 10 3 343 287 256 249 242 240 239 240 243 243 242 241 241 242 243 243 243 243 243 242 245 250 259 270 284 293 301 307 314 320 321 327 330 332 336 339
17 19 18 18 12 10 6 359 343 307 272 260 254 250 247 244 244 245 241 239 241 243 244 243 243 243 241 242 247 254 266 277 288 297 306 313 318 322 330 336 336 336 340
0 1 1 354 359 1 3 1 3 350 326 300 276 264 256 252 248 244 241 240 241 243 244 246 245 244 243 241 244 249 257 268 280 290 299 308 314 320 329 338 341 342 349
346 348 348 348 337 333 338 344 350 351 349 333 316 300 287 274 260 252 244 240 237 240 243 244 246 244 240 237 239 244 251 261 271 281 291 298 300 310 326 339 350 358 11
333 332 331 330 333 330 324 325 321 327 328 327 321 313 305 294 282 265 254 244 237 235 235 236 239 236 234 235 236 240 246 254 264 272 279 276 274 287 316 346 6 8 22
323 322 319 318 319 320 321 324 321 315 307 306 309 304 303 300 294 284 263 249 243 236 232 231 231 228 224 227 230 236 241 247 256 264 267 260 254 257 285 345 19 26 24
312 311 310 310 309 310 309 304 304 305 304 295 300 297 299 298 300 279 262 261 245 244 234 228 227 227 226 227 229 233 238 243 249 256 258 250 242 235 229 252 15 30 28
298 297 297 298 300 302 301 301 299 290 296 299 297 292 291 287 285 275 262 252 247 234 237 234 230 228 227 227 230 233 237 242 247 252 251 243 234 226 217 208 213 236 327
290 287 286 286 286 287 290 292 292 293 294 293 289 294 287 289 276 265 255 250 239 228 235 233 234 231 230 229 231 230 235 237 241 246 244 237 228 222 217 206 202 202 170
287 285 284 282 278 276 276 277 280 283 283 284 288 288 291 281 283 262 249 243 242 237 225 235 237 234 230 229 230 226 233 237 241 244 239 233 224 218 216 208 201 193 175
283 284 285 283 280 278 275 272 270 270 273 275 278 281 287 285 276 277 259 248 243 243 239 237 237 237 231 228 225 226 231 231 238 239 235 231 222 217 216 211 200 192 175
283 282 281 279 277 276 274 273 270 267 266 266 267 270 273 275 272 262 260 267 255 247 243 242 245 241 234 228 224 225 223 228 236 235 234 229 221 216 213 208 203 190 177
280 280 280 279 278 276 273 270 271 270 266 264 263 264 265 266 270 268 258 257 262 256 250 247 244 244 236 230 227 227 230 224 230 229 230 228 221 214 211 209 203 192 180
280 281 282 281 280 279 277 275 272 270 270 266 265 263 264 261 261 265 264 254 255 260 259 251 247 241 237 235 230 228 227 221 227 228 228 227 220 215 211 208 205 196 184
273 272 274 275 274 274 274 275 274 272 270 268 264 262 261 260 260 260 262 260 247 253 260 259 250 245 242 240 236 230 230 225 221 230 228 226 222 215 210 207 204 199 187
283 281 278 277 277 277 278 278 278 276 273 272 270 267 264 261 257 254 254 260 257 248 245 258 256 249 243 241 236 233 233 234 225 226 225 224 222 216 211 207 202 198 191
284 283 283 282 281 280 280 279 277 277 276 275 272 267 262 258 255 252 251 253 256 249 243 246 253 251 247 238 235 235 229 232 224 216 222 220 217 213 210 206 202 199 193
Wind_Speed_850mb
37 49 58 70 79 87 94 99 97 89 90 93 91 85 80 75 72 65 60 53 49 45 43 41 40 40 37 36 35 35 36 38 50 61 60 65 68 65 66 65 59 64 74
19 31 47 56 66 77 85 93 93 86 87 87 86 85 85 79 75 72 66 60 54 51 46 45 44 44 40 39 38 37 39 43 50 60 64 67 68 61 64 66 63 63 72
7 18 28 42 51 63 72 81 85 85 85 86 84 84 83 81 80 76 69 62 57 54 50 49 46 47 44 41 38 39 41 45 49 59 67 68 69 63 67 67 69 68 70
4 7 14 24 34 46 58 68 78 81 83 84 81 80 81 82 81 77 72 65 61 60 54 53 50 50 46 42 40 40 42 44 49 56 65 70 67 64 65 74 79 75 75
15 11 8 14 22 31 42 52 63 69 76 80 81 81 82 81 80 79 74 68 66 62 60 56 53 51 48 44 42 42 42 44 49 56 62 67 66 66 68 72 77 83 81
22 14 5 10 18 26 33 43 49 57 67 75 80 79 79 79 80 78 72 72 69 67 64 59 55 53 51 48 44 42 42 43 48 52 57 60 57 60 64 67 70 81 87
29 23 15 7 5 17 27 33 39 47 55 66 73 75 78 79 79 76 74 73 72 70 66 61 58 56 53 50 46 44 42 42 45 50 54 51 52 52 56 62 63 65 69
36 33 26 18 9 3 14 26 35 43 51 59 65 72 76 77 77 75 73 71 74 73 69 62 59 57 55 51 49 44 41 42 43 46 48 46 43 45 47 54 60 61 62
41 39 37 32 25 14 7 13 25 36 44 51 57 61 67 73 75 74 72 75 78 76 71 66 62 61 57 54 50 44 43 42 41 43 45 40 37 39 44 48 52 57 61
44 43 41 37 34 29 21 14 14 25 35 44 51 56 60 64 67 70 71 75 79 79 76 69 67 65 58 56 51 45 44 42 41 40 39 34 32 35 38 43 48 47 44
44 39 38 38 36 34 31 26 21 16 21 32 42 49 57 63 66 66 68 75 79 81 78 73 71 67 62 58 51 47 41 42 40 39 35 30 28 29 34 39 40 37 34
37 38 38 38 38 36 33 31 27 26 23 20 28 38 46 51 58 65 65 69 72 79 79 74 68 64 61 57 54 48 44 42 40 36 31 27 23 24 28 35 33 25 25
38 37 34 29 32 36 38 36 36 30 25 26 29 31 35 40 44 51 59 63 68 75 76 70 63 60 60 59 58 53 48 42 39 34 30 23 19 19 22 27 23 18 18
42 40 41 41 35 33 33 30 33 36 36 28 27 31 33 37 40 40 50 58 63 71 73 72 67 61 63 63 61 59 51 44 40 33 30 22 18 14 15 20 19 14 11
52 51 51 49 48 45 40 36 32 25 30 37 34 32 34 34 38 38 39 52 62 72 75 74 73 73 74 74 68 62 54 46 41 34 32 24 19 15 8 10 11 10 9
65 65 62 63 60 55 54 52 38 37 35 35 36 37 33 31 33 37 39 33 42 56 74 84 85 83 81 77 71 64 56 49 42 39 35 28 23 19 12 3 4 4 5
73 73 73 73 70 69 65 61 64 52 43 39 38 37 35 33 31 32 37 32 31 50 75 86 89 88 84 77 71 64 56 49 45 41 38 32 29 27 20 12 6 2 1
82 81 81 79 77 75 74 71 68 65 70 63 43 41 40 36 33 31 36 33 42 57 77 78 83 82 81 76 70 63 55 55 52 47 43 38 35 34 29 20 15 8 4
85 85 82 80 80 81 81 79 79 77 72 71 68 51 41 39 36 32 36 48 55 61 72 76 76 74 75 75 70 60 62 62 55 52 48 43 41 40 35 27 24 15 10
85 84 83 82 81 80 80 80 82 82 80 77 74 65 53 45 42 35 38 53 58 61 63 73 75 79 72 73 70 71 65 62 64 59 52 48 46 44 40 34 31 22 18
75 77 75 75 77 76 76 78 83 84 85 83 82 74 62 55 55 50 39 48 59 66 66 66 67 76 77 76 73 76 70 69 72 65 58 53 51 50 46 41 38 30 27
69 72 70 71 73 74 74 74 80 86 89 90 90 85 72 66 63 61 59 52 54 61 66 68 66 63 69 75 81 74 76 75 75 69 62 58 56 54 52 49 45 40 39
65 68 70 70 72 73 73 75 78 83 88 89 89 89 84 75 69 67 62 62 53 55 59 62 69 71 74 78 78 76 78 78 74 72 65 64 62 62 58 56 52 49 51
56 61 64 65 68 70 71 72 74 76 79 84 82 85 84 82 77 71 67 66 62 48 52 61 67 71 75 80 74 75 76 78 75 72 71 66 65 66 61 61 56 55 56
57 59 61 64 67 69 71 74 75 74 75 75 76 80 82 81 85 77 70 69 63 61 49 55 58 70 69 69 72 74 80 79 74 74 74 69 68 65 65 64 60 62 63
59 63 66 67 70 72 73 74 75 74 73 71 70 72 74 82 87 79 73 71 66 66 48 53 61 69 70 66 66 64 72 85 80 78 76 73 71 69 70 69 66 69 68
Wind_Direction_850mb
212 213 213 215 214 218 221 226 227 225 223 223 222 220 220 220 221 224 228 232 236 240 242 244 245 249 254 262 272 282 289 289 288 303 309 312 315 322 325 325 323 326 326
217 215 214 214 214 217 219 226 228 227 225 224 223 221 222 223 225 227 229 233 237 242 245 245 245 249 252 260 270 281 290 295 295 302 313 316 319 326 327 329 328 327 327
192 213 212 210 210 214 218 224 228 227 226 223 222 223 224 225 227 228 232 237 240 244 246 247 247 248 251 257 268 280 289 296 301 304 311 317 321 332 330 330 328 331 332
90 178 208 210 213 217 218 226 230 228 226 223 223 224 225 228 228 231 234 237 242 244 247 249 248 249 252 257 265 276 286 296 302 308 313 317 324 333 329 328 330 335 335
84 121 125 212 213 220 218 223 227 229 228 225 225 225 227 229 230 233 235 239 242 244 246 249 250 250 252 255 263 275 286 297 305 310 312 317 326 331 329 331 331 332 335
59 65 93 191 196 206 216 222 226 228 227 226 226 229 230 231 233 235 237 241 243 244 248 250 250 249 249 252 259 270 283 296 303 308 312 316 325 326 327 331 333 335 337
55 55 56 65 205 218 215 216 223 228 229 230 231 232 234 234 236 238 239 241 244 247 249 249 249 248 248 251 258 267 280 293 302 308 312 317 319 326 327 328 332 332 332
42 40 41 38 32 292 238 231 226 224 226 229 231 234 236 237 239 239 240 242 245 246 248 248 249 248 248 250 256 266 278 290 300 304 309 317 320 323 327 326 328 329 334
37 36 30 26 18 13 331 263 246 238 233 234 235 237 238 238 240 241 240 240 242 244 245 245 245 245 244 247 253 264 275 286 296 303 310 317 323 323 325 327 329 333 338
32 30 28 22 12 10 3 343 287 256 249 242 240 239 240 243 243 242 241 241 242 243 243 243 243 243 242 245 250 259 270 284 293 301 307 314 320 321 327 330 332 336 339
17 19 18 18 12 10 6 359 343 307 272 260 254 250 247 244 244 245 241 239 241 243 244 243 243 243 241 242 247 254 266 277 288 297 306 313 318 322 330 336 336 336 340
0 1 1 354 359 1 3 1 3 350 326 300 276 264 256 252 248 244 241 240 241 243 244 246 245 244 243 241 244 249 257 268 280 290 299 308 314 320 329 338 341 342 349
346 348 348 348 337 333 338 344 350 351 349 333 316 300 287 274 260 252 244 240 237 240 243 244 246 244 240 237 239 244 251 261 271 281 291 298 300 310 326 339 350 358 11
333 332 331 330 333 330 324 325 321 327 328 327 321 313 305 294 282 265 254 244 237 235 235 236 239 236 234 235 236 240 246 254 264 272 279 276 274 287 316 346 6 8 22
323 322 319 318 319 320 321 324 321 315 307 306 309 304 303 300 294 284 263 249 243 236 232 231 231 228 224 227 230 236 241 247 256 264 267 260 254 257 285 345 19 26 24
312 311 310 310 309 310 309 304 304 305 304 295 300 297 299 298 300 279 262 261 245 244 234 228 227 227 226 227 229 233 238 243 249 256 258 250 242 235 229 252 15 30 28
298 297 297 298 300 302 301 301 299 290 296 299 297 292 291 287 285 275 262 252 247 234 237 234 230 228 227 227 230 233 237 242 247 252 251 243 234 226 217 208 213 236 327
290 287 286 286 286 287 290 292 292 293 294 293 289 294 287 289 276 265 255 250 239 228 235 233 234 231 230 229 231 230 235 237 241 246 244 237 228 222 217 206 202 202 170
287 285 284 282 278 276 276 277 280 283 283 284 288 288 291 281 283 262 249 243 242 237 225 235 237 234 230 229 230 226 233 237 241 244 239 233 224 218 216 208 201 193 175
283 284 285 283 280 278 275 272 270 270 273 275 278 281 287 285 276 277 259 248 243 243 239 237 237 237 231 228 225 226 231 231 238 239 235 231 222 217 216 211 200 192 175
283 282 281 279 277 276 274 273 270 267 266 266 267 270 273 275 272 262 260 267 255 247 243 242 245 241 234 228 224 225 223 228 236 235 234 229 221 216 213 208 203 190 177
280 280 280 279 278 276 273 270 271 270 266 264 263 264 265 266 270 268 258 257 262 256 250 247 244 244 236 230 227 227 230 224 230 229 230 228 221 214 211 209 203 192 180
280 281 282 281 280 279 277 275 272 270 270 266 265 263 264 261 261 265 264 254 255 260 259 251 247 241 237 235 230 228 227 221 227 228 228 227 220 215 211 208 205 196 184
273 272 274 275 274 274 274 275 274 272 270 268 264 262 261 260 260 260 262 260 247 253 260 259 250 245 242 240 236 230 230 225 221 230 228 226 222 215 210 207 204 199 187
283 281 278 277 277 277 278 278 278 276 273 272 270 267 264 261 257 254 254 260 257 248 245 258 256 249 243 241 236 233 233 234 225 226 225 224 222 216 211 207 202 198 191
284 283 283 282 281 280 280 279 277 277 276 275 272 267 262 258 255 252 251 253 256 249 243 246 253 251 247 238 235 235 229 232 224 216 222 220 217 213 210 206 202 199 193